When you browse on this site, cookies collect data to enhance your experience and personalize the content and advertising you see.
Visit our Privacy Policy to learn more. By continuing to use the site, you agree to this use of cookies and data.
  • In Deutschland
  • Länderverzeichnis
  • Für 7 Tage
  • Wassertemperatur
  • Wetterkarte
  • Widgets
  • user-avatar
    Anmelden

    Stündliche Wetter Saurimo

    Heute, 12 Dezember, Donnerstag

    Zeit Temperatur Niederschläge Wind Luftdruck Luftfeuchtigkeit
    00:00 +20°C° 0.3 mm 1 m/S 669 mmHg 97%
    01:00 +18°C° 0 mm 0 m/S 669 mmHg 97%
    02:00 +18°C° 0.5 mm 0 m/S 669 mmHg 97%
    03:00 +18°C° 0.5 mm 0 m/S 669 mmHg 98%
    04:00 +18°C° 0.5 mm 0 m/S 669 mmHg 98%
    05:00 +20°C° 0.1 mm 1 m/S 669 mmHg 98%
    06:00 +21°C° 0.1 mm 1 m/S 670 mmHg 97%
    07:00 +21°C° 0.1 mm 1 m/S 671 mmHg 96%
    08:00 +22°C° 0.1 mm 1 m/S 671 mmHg 94%
    09:00 +23°C° 0.1 mm 1 m/S 671 mmHg 91%
    10:00 +23°C° 0.1 mm 1 m/S 671 mmHg 89%
    11:00 +24°C° 0.7 mm 2 m/S 671 mmHg 87%
    12:00 +25°C° 0.7 mm 2 m/S 670 mmHg 85%
    13:00 +25°C° 0.7 mm 3 m/S 670 mmHg 83%
    14:00 +25°C° 0.2 mm 2 m/S 669 mmHg 81%
    15:00 +26°C° 0.2 mm 2 m/S 669 mmHg 79%
    16:00 +26°C° 0.2 mm 2 m/S 669 mmHg 76%
    17:00 +24°C° 0.1 mm 1 m/S 669 mmHg 83%
    18:00 +22°C° 0.1 mm 1 m/S 669 mmHg 90%
    19:00 +21°C° 0.1 mm 1 m/S 670 mmHg 96%
    20:00 +21°C° 0.1 mm 1 m/S 670 mmHg 97%
    21:00 +20°C° 0.1 mm 1 m/S 670 mmHg 97%
    22:00 +20°C° 0.1 mm 1 m/S 670 mmHg 98%
    23:00 +20°C° 0 mm 1 m/S 670 mmHg 97%

    Morgen, 13 Dezember, Freitag

    Zeit Temperatur Niederschläge Wind Luftdruck Luftfeuchtigkeit
    00:00 +20°C° 0 mm 1 m/S 669 mmHg 97%
    01:00 +20°C° 0 mm 1 m/S 669 mmHg 97%
    02:00 +20°C° 0 mm 1 m/S 669 mmHg 97%
    03:00 +19°C° 0 mm 1 m/S 669 mmHg 97%
    04:00 +19°C° 0 mm 1 m/S 669 mmHg 97%
    05:00 +18°C° 0 mm 0 m/S 669 mmHg 95%
    06:00 +19°C° 0 mm 0 m/S 670 mmHg 92%
    07:00 +20°C° 0 mm 0 m/S 671 mmHg 90%
    08:00 +23°C° 0 mm 0 m/S 671 mmHg 81%
    09:00 +25°C° 0 mm 0 m/S 672 mmHg 73%
    10:00 +27°C° 0 mm 0 m/S 672 mmHg 64%
    11:00 +27°C° 0.1 mm 0 m/S 671 mmHg 64%
    12:00 +30°C° 0.1 mm 1 m/S 670 mmHg 64%
    13:00 +30°C° 0.1 mm 1 m/S 669 mmHg 63%
    14:00 +29°C° 1.4 mm 1 m/S 669 mmHg 70%
    15:00 +27°C° 1.4 mm 1 m/S 668 mmHg 78%
    16:00 +26°C° 1.4 mm 1 m/S 668 mmHg 85%
    17:00 +23°C° 0.9 mm 0 m/S 668 mmHg 86%
    18:00 +22°C° 0.9 mm 0 m/S 669 mmHg 87%
    19:00 +21°C° 0.9 mm 0 m/S 669 mmHg 89%
    20:00 +20°C° 0.3 mm 0 m/S 669 mmHg 90%
    21:00 +20°C° 0.3 mm 0 m/S 669 mmHg 92%
    22:00 +22°C° 0.3 mm 1 m/S 670 mmHg 94%
    23:00 +21°C° 0.9 mm 1 m/S 669 mmHg 95%

    übermorgen, 14 Dezember, Samstag

    Zeit Temperatur Niederschläge Wind Luftdruck Luftfeuchtigkeit
    00:00 +21°C° 0.9 mm 1 m/S 669 mmHg 96%
    01:00 +21°C° 0.9 mm 1 m/S 669 mmHg 97%
    02:00 +20°C° 0.8 mm 1 m/S 669 mmHg 97%
    03:00 +18°C° 0.8 mm 0 m/S 669 mmHg 97%
    04:00 +18°C° 0.8 mm 0 m/S 669 mmHg 98%
    05:00 +19°C° 0.7 mm 0 m/S 670 mmHg 97%
    06:00 +19°C° 0.7 mm 0 m/S 670 mmHg 97%
    07:00 +21°C° 0.7 mm 1 m/S 671 mmHg 96%
    08:00 +21°C° 0.8 mm 1 m/S 671 mmHg 96%
    09:00 +21°C° 0.8 mm 1 m/S 671 mmHg 96%
    10:00 +21°C° 0.8 mm 1 m/S 671 mmHg 96%
    11:00 +22°C° 0.3 mm 1 m/S 670 mmHg 95%
    12:00 +21°C° 0.3 mm 2 m/S 670 mmHg 93%
    13:00 +23°C° 0.3 mm 2 m/S 669 mmHg 91%
    14:00 +23°C° 0.4 mm 2 m/S 669 mmHg 90%
    15:00 +23°C° 0.4 mm 2 m/S 669 mmHg 88%
    16:00 +24°C° 0.4 mm 2 m/S 669 mmHg 86%
    17:00 +23°C° 0.8 mm 2 m/S 669 mmHg 90%
    18:00 +21°C° 0.8 mm 2 m/S 670 mmHg 93%
    19:00 +20°C° 0.8 mm 2 m/S 670 mmHg 97%
    20:00 +21°C° 0.3 mm 1 m/S 670 mmHg 97%
    21:00 +20°C° 0.3 mm 1 m/S 670 mmHg 97%
    22:00 +20°C° 0.3 mm 1 m/S 670 mmHg 98%
    23:00 +20°C° 0 mm 1 m/S 670 mmHg 98%

    15 Dezember, Sonntag

    Zeit Temperatur Niederschläge Wind Luftdruck Luftfeuchtigkeit
    00:00 +20°C° 0 mm 1 m/S 670 mmHg 98%
    01:00 +19°C° 0 mm 1 m/S 669 mmHg 98%
    02:00 +19°C° 0 mm 1 m/S 669 mmHg 98%
    03:00 +19°C° 0 mm 1 m/S 669 mmHg 98%
    04:00 +19°C° 0 mm 1 m/S 669 mmHg 98%
    05:00 +19°C° 0 mm 1 m/S 670 mmHg 97%
    06:00 +20°C° 0 mm 1 m/S 670 mmHg 97%
    07:00 +20°C° 0 mm 1 m/S 671 mmHg 96%
    08:00 +21°C° 0 mm 1 m/S 671 mmHg 94%
    09:00 +22°C° 0 mm 1 m/S 671 mmHg 92%
    10:00 +20°C° 0 mm 0 m/S 671 mmHg 90%
    11:00 +24°C° 0.3 mm 1 m/S 671 mmHg 82%
    12:00 +26°C° 0.3 mm 1 m/S 670 mmHg 75%
    13:00 +28°C° 0.3 mm 1 m/S 670 mmHg 67%
    14:00 +27°C° 0.4 mm 1 m/S 669 mmHg 71%
    15:00 +27°C° 0.4 mm 1 m/S 669 mmHg 75%
    16:00 +26°C° 0.4 mm 1 m/S 668 mmHg 79%
    17:00 +24°C° 0.5 mm 1 m/S 668 mmHg 83%
    18:00 +23°C° 0.5 mm 1 m/S 668 mmHg 88%
    19:00 +21°C° 0.5 mm 1 m/S 668 mmHg 93%
    20:00 +21°C° 0 mm 1 m/S 669 mmHg 93%
    21:00 +19°C° 0 mm 0 m/S 669 mmHg 94%
    22:00 +18°C° 0 mm 0 m/S 670 mmHg 95%
    23:00 +18°C° 0 mm 0 m/S 669 mmHg 95%

    16 Dezember, Montag

    Zeit Temperatur Niederschläge Wind Luftdruck Luftfeuchtigkeit
    00:00 +18°C° 0 mm 0 m/S 669 mmHg 95%
    01:00 +18°C° 0 mm 0 m/S 668 mmHg 96%
    02:00 +18°C° 0 mm 0 m/S 668 mmHg 96%
    03:00 +17°C° 0 mm 0 m/S 668 mmHg 96%
    04:00 +17°C° 0 mm 0 m/S 668 mmHg 96%
    05:00 +18°C° 0 mm 0 m/S 669 mmHg 96%
    06:00 +19°C° 0 mm 0 m/S 669 mmHg 95%
    07:00 +22°C° 0 mm 1 m/S 670 mmHg 94%
    08:00 +23°C° 0.7 mm 1 m/S 670 mmHg 91%
    09:00 +24°C° 0.7 mm 1 m/S 670 mmHg 88%
    10:00 +26°C° 0.7 mm 2 m/S 670 mmHg 85%
    11:00 +26°C° 1.2 mm 2 m/S 669 mmHg 83%
    12:00 +27°C° 1.2 mm 2 m/S 669 mmHg 81%
    13:00 +27°C° 1.2 mm 2 m/S 668 mmHg 79%
    14:00 +26°C° 1.3 mm 2 m/S 668 mmHg 83%
    15:00 +26°C° 1.3 mm 1 m/S 667 mmHg 86%
    16:00 +25°C° 1.3 mm 1 m/S 667 mmHg 90%
    17:00 +24°C° 0.4 mm 1 m/S 667 mmHg 91%
    18:00 +23°C° 0.4 mm 1 m/S 667 mmHg 93%
    19:00 +22°C° 0.4 mm 1 m/S 668 mmHg 95%
    20:00 +22°C° 0.3 mm 1 m/S 668 mmHg 95%
    21:00 +22°C° 0.3 mm 1 m/S 668 mmHg 96%
    22:00 +21°C° 0.3 mm 1 m/S 669 mmHg 96%
    23:00 +21°C° 0.6 mm 1 m/S 668 mmHg 96%

    17 Dezember, Dienstag

    Zeit Temperatur Niederschläge Wind Luftdruck Luftfeuchtigkeit
    00:00 +21°C° 0.6 mm 1 m/S 668 mmHg 96%
    01:00 +21°C° 0.6 mm 1 m/S 668 mmHg 96%
    02:00 +21°C° 0.2 mm 1 m/S 668 mmHg 96%
    03:00 +21°C° 0.2 mm 1 m/S 668 mmHg 96%
    04:00 +21°C° 0.2 mm 1 m/S 668 mmHg 96%
    05:00 +21°C° 0 mm 1 m/S 668 mmHg 95%
    06:00 +20°C° 0 mm 0 m/S 669 mmHg 94%
    07:00 +20°C° 0 mm 0 m/S 669 mmHg 93%
    08:00 +23°C° 1.2 mm 1 m/S 669 mmHg 91%
    09:00 +24°C° 1.2 mm 1 m/S 669 mmHg 88%
    10:00 +25°C° 1.2 mm 1 m/S 670 mmHg 86%
    11:00 +26°C° 2.1 mm 1 m/S 669 mmHg 85%
    12:00 +26°C° 2.1 mm 1 m/S 669 mmHg 83%
    13:00 +27°C° 2.1 mm 1 m/S 668 mmHg 82%
    14:00 +26°C° 1.4 mm 1 m/S 668 mmHg 83%
    15:00 +26°C° 1.4 mm 1 m/S 667 mmHg 84%
    16:00 +24°C° 1.4 mm 0 m/S 667 mmHg 85%
    17:00 +23°C° 0.8 mm 0 m/S 667 mmHg 88%
    18:00 +21°C° 0.8 mm 0 m/S 667 mmHg 90%
    19:00 +20°C° 0.8 mm 0 m/S 667 mmHg 93%
    20:00 +20°C° 0.7 mm 0 m/S 668 mmHg 93%
    21:00 +20°C° 0.7 mm 0 m/S 668 mmHg 94%
    22:00 +21°C° 0.7 mm 1 m/S 668 mmHg 94%
    23:00 +21°C° 0.1 mm 1 m/S 668 mmHg 95%
    Mehr zeigen